TCV1DE GVAC-GVBA

Flight info

Callsign TCV1DE
Flight time 0h 23m
Altitude 11000
Route BA505/N0288F100 DCT BA503/N0285F090
Aircraft AT76/M-SDFGIRY/S

Departure

Time 2026-04-21 18:19
Airport Amílcar Cabral International Airport (GVAC)

Arrival

Time 2026-04-21 18:43
Airport Aristides Pereira International Airport (GVBA)
Time Latitude Longitude Altitude Speed Heading
2026-04-21 17:36 16.73300 -22.94489 181 ft 0 kts 90°
2026-04-21 18:13 16.73300 -22.94506 181 ft 2 kts 89°
2026-04-21 18:14 16.73300 -22.94540 181 ft 2 kts 88°
2026-04-21 18:14 16.73300 -22.94557 181 ft 2 kts 95°
2026-04-21 18:14 16.73299 -22.94575 181 ft 2 kts 143°
2026-04-21 18:15 16.73301 -22.94591 181 ft 2 kts 133°
2026-04-21 18:15 16.73308 -22.94595 181 ft 0 kts 174°
2026-04-21 18:15 16.73286 -22.94595 181 ft 13 kts 180°
2026-04-21 18:16 16.73180 -22.94594 181 ft 16 kts 179°
2026-04-21 18:16 16.73074 -22.94623 181 ft 17 kts 235°
2026-04-21 18:16 16.73012 -22.94692 181 ft 9 kts 184°
2026-04-21 18:16 16.72934 -22.94691 181 ft 13 kts 180°
2026-04-21 18:17 16.72835 -22.94691 181 ft 15 kts 180°
2026-04-21 18:17 16.72722 -22.94690 181 ft 17 kts 180°
2026-04-21 18:17 16.72603 -22.94690 181 ft 18 kts 180°
2026-04-21 18:17 16.72479 -22.94689 181 ft 18 kts 179°
2026-04-21 18:18 16.72408 -22.94739 181 ft 10 kts 270°
2026-04-21 18:18 16.72408 -22.94828 183 ft 14 kts 269°
2026-04-21 18:18 16.72461 -22.94889 186 ft 11 kts 357°
2026-04-21 18:18 16.72470 -22.94889 184 ft 0 kts
2026-04-21 18:19 16.72604 -22.94889 184 ft 50 kts 360°
2026-04-21 18:19 16.73139 -22.94892 185 ft 103 kts 359°
2026-04-21 18:19 16.73971 -22.94900 372 ft 124 kts
2026-04-21 18:19 16.74830 -22.94928 837 ft 124 kts
2026-04-21 18:20 16.75664 -22.94727 1195 ft 130 kts 39°
2026-04-21 18:20 16.75964 -22.93773 1267 ft 161 kts 96°
2026-04-21 18:20 16.75339 -22.92727 1426 ft 185 kts 140°
2026-04-21 18:20 16.74132 -22.92247 1763 ft 188 kts 164°
2026-04-21 18:21 16.72837 -22.92175 2086 ft 190 kts 182°
2026-04-21 18:21 16.71512 -22.92272 2404 ft 190 kts 182°
2026-04-21 18:21 16.70179 -22.92294 2746 ft 192 kts 176°
2026-04-21 18:21 16.68837 -22.92248 3082 ft 194 kts 175°
2026-04-21 18:22 16.67498 -22.92089 3433 ft 194 kts 169°
2026-04-21 18:22 16.66182 -22.91784 3774 ft 193 kts 164°
2026-04-21 18:22 16.64899 -22.91338 4089 ft 195 kts 160°
2026-04-21 18:22 16.63646 -22.90787 4464 ft 195 kts 159°
2026-04-21 18:23 16.62424 -22.90197 4815 ft 193 kts 158°
2026-04-21 18:23 16.61206 -22.89603 5106 ft 194 kts 159°
2026-04-21 18:23 16.59983 -22.88999 5426 ft 194 kts 159°
2026-04-21 18:23 16.58750 -22.88394 5739 ft 195 kts 160°
2026-04-21 18:24 16.57524 -22.87809 5993 ft 197 kts 161°
2026-04-21 18:24 16.56276 -22.87217 6282 ft 197 kts 162°
2026-04-21 18:24 16.55022 -22.86627 6554 ft 199 kts 162°
2026-04-21 18:24 16.53756 -22.86027 6830 ft 199 kts 162°
2026-04-21 18:25 16.52502 -22.85432 7104 ft 199 kts 162°
2026-04-21 18:25 16.51241 -22.84835 7369 ft 199 kts 162°
2026-04-21 18:25 16.49983 -22.84239 7643 ft 198 kts 162°
2026-04-21 18:25 16.48725 -22.83645 7901 ft 199 kts 162°
2026-04-21 18:26 16.47462 -22.83045 8191 ft 199 kts 163°
2026-04-21 18:26 16.46203 -22.82449 8480 ft 200 kts 163°
2026-04-21 18:26 16.44935 -22.81850 8789 ft 200 kts 163°
2026-04-21 18:26 16.43671 -22.81251 9073 ft 199 kts 163°
2026-04-21 18:27 16.42406 -22.80651 9341 ft 200 kts 163°
2026-04-21 18:27 16.41154 -22.80060 9602 ft 200 kts 163°
2026-04-21 18:27 16.39882 -22.79457 9849 ft 201 kts 163°
2026-04-21 18:27 16.38608 -22.78854 10065 ft 201 kts 164°
2026-04-21 18:28 16.37335 -22.78252 10283 ft 202 kts 163°
2026-04-21 18:28 16.36057 -22.77648 10506 ft 202 kts 164°
2026-04-21 18:28 16.34770 -22.77040 10713 ft 203 kts 164°
2026-04-21 18:28 16.33467 -22.76428 10837 ft 209 kts 163°
2026-04-21 18:29 16.32108 -22.75791 10894 ft 217 kts 163°
2026-04-21 18:29 16.30702 -22.75131 10894 ft 226 kts 163°
2026-04-21 18:29 16.29240 -22.74452 10893 ft 233 kts 163°
2026-04-21 18:29 16.27787 -22.73944 10899 ft 225 kts 183°
2026-04-21 18:30 16.26210 -22.74089 10903 ft 222 kts 196°
2026-04-21 18:30 16.24705 -22.74483 10899 ft 224 kts 202°
2026-04-21 18:30 16.23216 -22.74979 10899 ft 227 kts 203°
2026-04-21 18:30 16.21689 -22.75507 10898 ft 229 kts 203°
2026-04-21 18:31 16.20180 -22.76018 10896 ft 232 kts 202°
2026-04-21 18:31 16.18635 -22.76509 10892 ft 233 kts 201°
2026-04-21 18:31 16.17076 -22.76996 10893 ft 234 kts 201°
2026-04-21 18:31 16.15509 -22.77483 10896 ft 235 kts 201°
2026-04-21 18:32 16.13939 -22.77972 10901 ft 236 kts 201°
2026-04-21 18:32 16.12357 -22.78462 10899 ft 237 kts 201°
2026-04-21 18:32 16.10767 -22.78958 10734 ft 241 kts 201°
2026-04-21 18:32 16.09151 -22.79461 10439 ft 243 kts 201°
2026-04-21 18:33 16.07524 -22.79967 10159 ft 244 kts 201°
2026-04-21 18:33 16.05894 -22.80474 9884 ft 241 kts 200°
2026-04-21 18:33 16.04399 -22.80930 9620 ft 214 kts 200°
2026-04-21 18:33 16.03066 -22.81328 9394 ft 195 kts 201°
2026-04-21 18:34 16.01807 -22.81694 9191 ft 182 kts 201°
2026-04-21 18:34 16.00588 -22.82060 9002 ft 182 kts 201°
2026-04-21 18:34 15.99377 -22.82432 8821 ft 182 kts 201°
2026-04-21 18:34 15.98164 -22.82808 8659 ft 182 kts 201°
2026-04-21 18:35 15.97358 -22.83059 8564 ft 183 kts 202°
2026-04-21 18:35 15.95717 -22.83568 8333 ft 186 kts 202°
2026-04-21 18:35 15.94469 -22.83954 8151 ft 187 kts 201°
2026-04-21 18:35 15.93224 -22.84339 7971 ft 186 kts 201°
2026-04-21 18:36 15.91991 -22.84717 7819 ft 184 kts 202°
2026-04-21 18:36 15.90920 -22.85281 7506 ft 170 kts 233°
2026-04-21 18:36 15.90587 -22.86390 7231 ft 162 kts 267°
2026-04-21 18:36 15.90632 -22.87575 6943 ft 165 kts 274°
2026-04-21 18:37 15.90820 -22.88763 6641 ft 167 kts 281°
2026-04-21 18:37 15.91104 -22.89919 6343 ft 168 kts 285°
2026-04-21 18:37 15.91470 -22.91162 5993 ft 190 kts 286°
2026-04-21 18:37 15.91892 -22.92520 5620 ft 204 kts 286°
2026-04-21 18:38 15.92463 -22.93795 5195 ft 192 kts 311°
2026-04-21 18:38 15.93642 -22.94366 4801 ft 189 kts 350°
2026-04-21 18:38 15.94937 -22.94413 4385 ft 185 kts 359°
2026-04-21 18:38 15.96204 -22.94272 3999 ft 181 kts
2026-04-21 18:39 15.97396 -22.94007 3602 ft 177 kts 13°
2026-04-21 18:39 15.98570 -22.93657 3244 ft 172 kts 17°
2026-04-21 18:39 15.99707 -22.93279 2881 ft 172 kts 17°
2026-04-21 18:39 16.00846 -22.92907 2563 ft 168 kts 17°
2026-04-21 18:40 16.01952 -22.92555 2274 ft 172 kts 18°
2026-04-21 18:40 16.03139 -22.92172 1961 ft 183 kts 18°
2026-04-21 18:40 16.03950 -22.91906 1808 ft 186 kts 18°
2026-04-21 18:40 16.05595 -22.91365 1545 ft 177 kts 19°
2026-04-21 18:41 16.06675 -22.90990 1422 ft 153 kts 18°
2026-04-21 18:41 16.07610 -22.90700 1343 ft 135 kts 15°
2026-04-21 18:41 16.08417 -22.90476 1197 ft 113 kts 15°
2026-04-21 18:41 16.09149 -22.90268 975 ft 103 kts 17°
2026-04-21 18:42 16.09841 -22.90060 763 ft 107 kts 18°
2026-04-21 18:42 16.10562 -22.89843 640 ft 105 kts 19°
2026-04-21 18:42 16.11234 -22.89624 451 ft 98 kts 20°
2026-04-21 18:42 16.11879 -22.89428 298 ft 97 kts 18°
2026-04-21 18:43 16.12537 -22.89227 156 ft 99 kts 17°
2026-04-21 18:43 16.13111 -22.89051 66 ft 91 kts 17°
2026-04-21 18:43 16.13510 -22.88926 68 ft 23 kts 16°
2026-04-21 18:43 16.13583 -22.88911 75 ft 7 kts 341°
2026-04-21 18:44 16.13607 -22.88945 72 ft 7 kts 286°
2026-04-21 18:44 16.13626 -22.89014 65 ft 11 kts 288°
2026-04-21 18:44 16.13641 -22.89072 70 ft 7 kts 284°
2026-04-21 18:44 16.13647 -22.89093 69 ft 0 kts 286°
2026-04-21 18:53 16.13644 -22.89081 61 ft 2 kts 285°
2026-04-21 18:53 16.13641 -22.89067 64 ft 2 kts 283°
2026-04-21 18:53 16.13637 -22.89051 71 ft 2 kts 286°
2026-04-21 18:53 16.13632 -22.89034 62 ft 2 kts 286°
2026-04-21 18:54 16.13627 -22.89018 69 ft 2 kts 287°
2026-04-21 18:54 16.13622 -22.89001 68 ft 2 kts 242°
2026-04-21 18:54 16.13624 -22.88997 68 ft 1 kts 193°
2026-04-21 18:55 16.13610 -22.89001 69 ft 12 kts 197°
2026-04-21 18:55 16.13478 -22.89032 67 ft 8 kts 153°
2026-04-21 18:55 16.13456 -22.88987 72 ft 6 kts 107°
2026-04-21 18:55 16.13459 -22.88949 72 ft 4 kts 62°
2026-04-21 18:56 16.13467 -22.88942 71 ft 0 kts 28°
2026-04-21 18:56 16.13681 -22.88873 73 ft 65 kts 16°
2026-04-21 18:57 16.14303 -22.88683 124 ft 115 kts 17°
2026-04-21 18:57 16.15086 -22.88436 629 ft 121 kts 17°
2026-04-21 18:57 16.15940 -22.88151 810 ft 144 kts 21°
2026-04-21 18:57 16.16954 -22.87756 1008 ft 160 kts 22°
2026-04-21 18:58 16.17989 -22.87332 1464 ft 162 kts 22°
2026-04-21 18:58 16.19062 -22.86986 1881 ft 164 kts
2026-04-21 18:58 16.20163 -22.87336 2267 ft 169 kts 342°
2026-04-21 18:58 16.21273 -22.87752 2690 ft 170 kts 345°
2026-04-21 18:59 16.22412 -22.88110 3110 ft 171 kts 347°
2026-04-21 18:59 16.23566 -22.88412 3530 ft 171 kts 348°
2026-04-21 18:59 16.24735 -22.88669 3948 ft 171 kts 347°
2026-04-21 18:59 16.25919 -22.88911 4283 ft 175 kts 347°
2026-04-21 19:00 16.27138 -22.89147 4590 ft 181 kts 346°
2026-04-21 19:00 16.28384 -22.89394 4915 ft 184 kts 345°
2026-04-21 19:00 16.29637 -22.89657 5265 ft 185 kts 344°
2026-04-21 19:00 16.30907 -22.89926 5625 ft 186 kts 343°
2026-04-21 19:01 16.32161 -22.90191 5963 ft 187 kts 343°
2026-04-21 19:01 16.33487 -22.90476 5998 ft 205 kts 343°
2026-04-21 19:01 16.34935 -22.90786 6016 ft 219 kts 343°
2026-04-21 19:01 16.36464 -22.91108 6042 ft 229 kts 343°
2026-04-21 19:02 16.38049 -22.91442 6062 ft 236 kts 344°
2026-04-21 19:02 16.39676 -22.91787 6083 ft 240 kts 344°
2026-04-21 19:02 16.41329 -22.92135 6101 ft 244 kts 344°
2026-04-21 19:02 16.42997 -22.92487 6120 ft 246 kts 344°
2026-04-21 19:03 16.44668 -22.92839 5849 ft 234 kts 344°
2026-04-21 19:03 16.46165 -22.93154 5568 ft 207 kts 344°
2026-04-21 19:03 16.47502 -22.93437 5331 ft 186 kts 344°
2026-04-21 19:03 16.48772 -22.93707 5138 ft 187 kts 344°
2026-04-21 19:04 16.50003 -22.93970 4952 ft 180 kts 344°
2026-04-21 19:04 16.51194 -22.94219 4782 ft 171 kts 344°
2026-04-21 19:04 16.52381 -22.94477 4518 ft 176 kts 345°
2026-04-21 19:04 16.53566 -22.94752 4032 ft 173 kts 346°
2026-04-21 19:05 16.54735 -22.94884 3611 ft 166 kts
2026-04-21 19:05 16.55859 -22.94826 3365 ft 164 kts
2026-04-21 19:05 16.56970 -22.94755 3153 ft 159 kts
2026-04-21 19:05 16.58108 -22.94769 2946 ft 170 kts
2026-04-21 19:06 16.59320 -22.94796 2725 ft 179 kts
2026-04-21 19:06 16.60592 -22.94809 2465 ft 186 kts
2026-04-21 19:06 16.61852 -22.94812 2211 ft 174 kts
2026-04-21 19:06 16.63025 -22.94816 1981 ft 163 kts
2026-04-21 19:07 16.64148 -22.94827 1756 ft 163 kts
2026-04-21 19:07 16.65288 -22.94834 1555 ft 158 kts
2026-04-21 19:07 16.66327 -22.94849 1348 ft 142 kts
2026-04-21 19:07 16.67236 -22.94863 1187 ft 118 kts
2026-04-21 19:08 16.68026 -22.94850 1035 ft 109 kts
2026-04-21 19:08 16.68764 -22.94851 905 ft 102 kts
2026-04-21 19:08 16.69452 -22.94867 772 ft 102 kts
2026-04-21 19:08 16.70175 -22.94869 652 ft 106 kts
2026-04-21 19:09 16.70920 -22.94882 535 ft 109 kts
2026-04-21 19:09 16.71666 -22.94880 372 ft 101 kts 358°
2026-04-21 19:09 16.72379 -22.94886 240 ft 104 kts 359°
2026-04-21 19:09 16.73051 -22.94887 186 ft 83 kts 356°
2026-04-21 19:10 16.73551 -22.94896 184 ft 62 kts 360°
2026-04-21 19:10 16.73935 -22.94897 183 ft 48 kts 359°
2026-04-21 19:10 16.74167 -22.94899 181 ft 21 kts
2026-04-21 19:10 16.74250 -22.94831 181 ft 12 kts 59°
2026-04-21 19:11 16.74286 -22.94769 181 ft 11 kts 59°
2026-04-21 19:11 16.74282 -22.94704 181 ft 11 kts 154°
2026-04-21 19:11 16.74140 -22.94700 181 ft 24 kts 180°
2026-04-21 19:11 16.73953 -22.94699 181 ft 28 kts 179°
2026-04-21 19:12 16.73829 -22.94698 181 ft 26 kts 179°
2026-04-21 19:12 16.73627 -22.94679 181 ft 12 kts 138°
2026-04-21 19:12 16.73611 -22.94630 181 ft 6 kts 111°
2026-04-21 19:12 16.73564 -22.94600 181 ft 6 kts 199°
2026-04-21 19:13 16.73532 -22.94599 181 ft 11 kts 178°
2026-04-21 19:13 16.73499 -22.94576 181 ft 5 kts 112°
2026-04-21 19:13 16.73498 -22.94552 181 ft 3 kts 90°
2026-04-21 19:13 16.73498 -22.94535 181 ft 2 kts 90°
2026-04-21 19:14 16.73498 -22.94522 181 ft 0 kts 90°